Regional Weather Roundup
Issued by NWS

Home | Current Version | Previous Version | Graphics & Text | Print | Product List | Glossary On
Versions: 1 2 3 4 5 6 7 8 9 10 11 12 13 14 15 16 17 18 19 20 21 22 23 24 25 26 27 28 29 30 31 32 33 34 35 36 37 38 39 40 41 42 43 44 45 46 47 48 49 50
000
ASUS43 KMKX 051420
RWRWI

WISCONSIN REGIONAL WEATHER ROUNDUP
NATIONAL WEATHER SERVICE MILWAUKEE/SULLIVAN WI
800 AM CST THU MAR 05 2015

NOTE: "FAIR" INDICATES FEW OR NO CLOUDS BELOW 12,000 FEET WITH NO
SIGNIFICANT WEATHER AND/OR OBSTRUCTIONS TO VISIBILITY.

WIZ001-002-006>008-014>016-023>028-051500-
NORTHWEST WISCONSIN

CITY           SKY/WX    TMP DP  RH WIND       PRES   REMARKS
SUPERIOR ARPT  MOSUNNY  -12 -17  75 SW6       30.46R WCI -26
ASHLAND        SUNNY     -9 -16  71 SW10      30.43R WCI -27
HAYWARD        PTSUNNY  -17 -22  78 CALM      30.41R HAZE
SIREN          MOSUNNY  -13 -20  73 CALM      30.46R
CUMBERLAND     PTSUNNY  -18 -24  76 CALM      30.42R
RICE LAKE      PTSUNNY  -15 -21  75 CALM      30.46R
CHETEK         PTSUNNY  -15 -20  77 CALM      30.46R
LADYSMITH      MOSUNNY  -16 -24  68 CALM      30.43R
EAU CLAIRE     SUNNY     -9 -15  75 SW5       30.47R WCI -20
MENOMONIE      MOSUNNY   -7 -15  68 W3        30.48R
NEW RICHMOND   MOSUNNY  -10 -15  77 CALM      30.47R
OSCEOLA        MOSUNNY  -15 -21  76 CALM      30.52R
$$

WIZ003>005-009-010-017-018-051500-
NORTH CENTRAL WISCONSIN

CITY           SKY/WX    TMP DP  RH WIND       PRES   REMARKS
MANITOWISH WTR SUNNY    -16 -21  78 CALM      30.31R
ARBOR VITAE    SUNNY    -12 -19  70 CALM      30.32R
WOODRUFF       SUNNY    -12 -19  70 CALM      30.32R
RHINELANDER    MOSUNNY  -14 -20  74 W5        30.32R WCI -26
EAGLE RIVER    MOSUNNY  -14 -21  70 CALM      30.31R
LAND O LAKES   SUNNY     -8 -12  80 W5        30.30R WCI -19
PHILLIPS       MOSUNNY  -16 -21  77 CALM      30.35R
TOMAHAWK       MOSUNNY  -13 -18  77 CALM      30.36R
MEDFORD        MOSUNNY  -11 -17  75 CALM      30.37R
MERRILL        MOSUNNY  -16 -22  72 CALM      30.37R
$$

WIZ029-030-035-036-043>047-051500-
CENTRAL WISCONSIN

CITY           SKY/WX    TMP DP  RH WIND       PRES   REMARKS
WAUSAU         MOSUNNY   -7 -16  65 NW6       30.38R WCI -20
MOSINEE        SUNNY     -8 -17  65 NW3       30.39R
MARSHFIELD     MOSUNNY   -7 -15  68 NW6       30.40R WCI -20
STEVENS POINT  MOSUNNY  -11 -18  71 CALM      30.42R
WAUPACA        SUNNY      1 -12  56 W3        30.45R
WAUTOMA        SUNNY     -6 -14  68 CALM      30.47R
WISC RAPIDS    MOSUNNY   -7 -14  71 CALM      30.45R
CAMP DOUGLAS   SUNNY      0  -9  65 W7        30.47R WCI -13
$$

WIZ011>013-019>022-031-037>040-048>050-051500-
NORTHEAST WISCONSIN

CITY           SKY/WX    TMP DP  RH WIND       PRES   REMARKS
ANTIGO         SUNNY    -16 -21  79 CALM      30.34R
SHAWANO        SUNNY     -2 -12  61 CALM      30.43R
OCONTO         SUNNY     -3 -12  65 NW3       30.44R
STURGEON BAY   SUNNY     -2 -11  65 W3        30.44R
GREEN BAY      SUNNY     -3 -11  68 SW3       30.44R
MANITOWOC      SUNNY      3  -9  57 W6        30.46R WCI  -8
APPLETON       SUNNY     -6 -15  65 W9        30.42R WCI -22
CLINTONVILLE   SUNNY      0 -11  60 NW3       30.44R
OSHKOSH        SUNNY      0 -11  59 W9        30.44R WCI -15
$$

WIZ032>034-041-042-053>061-051500-
SOUTHWEST WISCONSIN

CITY           SKY/WX    TMP DP  RH WIND       PRES   REMARKS
LA CROSSE      SUNNY     -1 -10  65 CALM      30.52R
SPARTA         SUNNY     -7 -13  74 CALM      30.49R
VIROQUA        SUNNY     -4 -11  72 W3        30.43R
BOSCOBEL       SUNNY     -4  -9  79 SW5       30.53R WCI -15
PRAIRIE DU CHI SUNNY     -3 -12  64 W3        30.54R
PLATTEVILLE    SUNNY     -5 -10  78 W5        30.47R WCI -16
$$

WIZ056-057-062-063-064-067-068-051500-
SOUTH CENTRAL WISCONSIN

CITY           SKY/WX    TMP DP  RH WIND       PRES   REMARKS
REEDSBURG      SUNNY     -2 -10  66 W5        30.47R WCI -12
BARABOO/DELLS  SUNNY     -2 -11  63 CALM      30.46R
LONE ROCK      SUNNY     -4 -10  75 W3        30.51R
MINERAL POINT  SUNNY      0  -9  65 CALM      30.45R
MADISON        SUNNY      2 -10  57 NW5       30.47R WCI  -8
MIDDLETON      SUNNY      3 -11  53 NW3       30.47R
WATERTOWN      SUNNY      1  -9  62 NW3       30.46R
MONROE         MOSUNNY    3  -8  60 NW8       30.44R WCI -10
JANESVILLE     SUNNY     -6 -11  77 CALM      30.46R
$$

WIZ051-052-058>065-066-070>072-051500-
SOUTHEAST WISCONSIN

CITY           SKY/WX    TMP DP  RH WIND       PRES   REMARKS
MILWAUKEE      MOSUNNY    6 -10  47 NW6       30.45R WCI  -4
WAUKESHA       NOT AVBL
MILWAUKEE/TIMM SUNNY      3 -11  51 NW6       30.46R WCI  -8
RACINE         MOSUNNY    4 -10  52 NW9       30.46R WCI -10
BURLINGTON     MOSUNNY   -4 -13  64 NW8       30.44S WCI -19
KENOSHA        MOSUNNY    1 -10  60 NW7       30.43R WCI -12
FOND DU LAC    SUNNY      1 -11  57 W6        30.45R WCI -10
SHEBOYGAN      SUNNY      1 -11  57 NW8       30.45R WCI -13
WEST BEND      SUNNY      3 -11  51 NW6       30.44R WCI  -8
JUNEAU         SUNNY      0 -10  63 NW5       30.46R WCI -10
$$

LSZ147-162-051500-
LAKE SUPERIOR

STATION/POSITION TIME  TEMP    WIND        PRES    WAVE
                       AIR SEA DIR/SP/G            HT/PER
                 (UTC) (F)     (DEG/KT/KT) (MB)    (FT/S)
DEVILS ISLAND    1400   -1     230/ 13/ 15 1031.8R
PORT WING        1340   -9     190/  6/  8 1030.8R
SAXON HARBOR     1300   -7     200/  9/ 11 1029.8R
$$

LMZ867-665-643>646-051500-
LAKE MICHIGAN

STATION/POSITION TIME  TEMP    WIND        PRES    WAVE
                       AIR SEA DIR/SP/G            HT/PER
                 (UTC) (F)     (DEG/KT/KT) (MB)    (FT/S)
NORTHPORT PIER   1315   -1     290/  6/ 12 1029.5R
SISTER BAY       1313    2     280/  7/  8   N/A
KEWAUNEE LAKESHO 1400    0     300/  7/ 11 1029.7R
SHEBOYGAN LAKESH 1400    3     290/  9/ 11 1033.5R
PORT WASHINGTON  1300    1     300/  8/  9 1031.2R
MILWAUKEE LAKESH 1400    6     310/  8/ 11   N/A
KENOSHA   LAKESH 1400    5     310/  7/ 11 1030.8R
$$

TC  - TEMPERATURE IN CELSIUS
VSB - VISIBILITY IN STATUTE MILES
WCI - WIND CHILL INDEX
HX  - HEAT INDEX




USA.gov is the U.S. government's official web portal to all federal, state and local government web resources and services.